Weather History for OINN - February, 2014

Change the Weather History Date:

Thursday, February 13, 2014

  Actual Average Record
Temperature  
Mean Temperature 45 °F -  
Max Temperature 53 °F - - ()
Min Temperature 37 °F - - ()
Degree Days  
Heating Degree Days 20    
Moisture  
Dew Point 39 °F    
Average Humidity 81    
Maximum Humidity 93    
Minimum Humidity 54    
Precipitation  
Precipitation 0.00 in - - ()
Sea Level Pressure  
Sea Level Pressure 30.25 in    
Wind  
Wind Speed 3 mph ()    
Max Wind Speed 12 mph    
Max Gust Speed -    
T = Trace of Precipitation, MM = Missing Value Source: Averaged Metar Reports

Daily Weather History Graph

Daily Weather History Graph

Search for Another Location

Airport or City:

Trip Planner

Search our weather history database for the weather conditions in past years. The results will help you decide how hot, cold, wet, or windy it might be!

Date:

Astronomy

Feb. 13, 2014 Rise Set
Actual Time 6:54 AM IRST 5:42 PM IRST
Civil Twilight 6:28 AM IRST 6:08 PM IRST
Nautical Twilight 5:57 AM IRST 6:39 PM IRST
Astronomical Twilight 5:27 AM IRST 7:09 PM IRST
Moon 4:29 PM IRST (2/13) 5:33 AM IRST (2/13)
Length of Visible Light 11h 40m
Length of Day
10h 47m
Waxing Gibbous, 98% of the Moon is Illuminated
Feb 13
Waxing Gibbous
Feb 15
Full
Feb 22
Last Quarter
Mar 1
New
Mar 8
First Quarter

Hourly Weather History & Observations

Time (IRST) Temp. Windchill Dew Point Humidity Pressure Visibility Wind Dir Wind Speed Gust Speed Precip Events Conditions
12:30 AM 41.0 °F - 39.2 °F 93% 30.30 in - Variable 2.3 mph - N/A   Clear
1:30 AM 41.0 °F - 39.2 °F 93% 30.30 in - Variable 2.3 mph - N/A   Clear
2:30 AM 41.0 °F - 39.2 °F 93% 30.30 in - Calm Calm - N/A   Clear
3:30 AM 39.2 °F - 35.6 °F 87% 30.27 in - Variable 2.3 mph - N/A   Clear
4:30 AM 39.2 °F - 35.6 °F 87% 30.27 in - Variable 2.3 mph - N/A   Clear
5:30 AM 39.2 °F - 35.6 °F 87% 30.27 in - Calm Calm - N/A   Clear
6:30 AM 37.4 °F - 35.6 °F 93% 30.27 in - Calm Calm - N/A   Clear
7:30 AM 37.4 °F - 33.8 °F 87% 30.30 in - Variable 2.3 mph - N/A   Clear
8:30 AM 39.2 °F - 35.6 °F 87% 30.01 in - Calm Calm - N/A   Clear
9:30 AM 48.2 °F - 35.6 °F 62% 30.30 in - Calm Calm - N/A   Clear
10:30 AM 50.0 °F - 33.8 °F 54% 30.27 in - East 11.5 mph - N/A   Clear
11:30 AM 51.8 °F - 42.8 °F 71% 30.27 in - East 11.5 mph - N/A   Clear
12:30 PM 51.8 °F - 42.8 °F 71% 30.27 in - East 9.2 mph - N/A   Clear
1:30 PM 53.6 °F - 42.8 °F 67% 30.27 in - ENE 9.2 mph - N/A   Clear
2:30 PM 53.6 °F - 42.8 °F 67% 30.24 in - East 11.5 mph - N/A   Clear
3:30 PM 51.8 °F - 42.8 °F 71% 30.24 in - ENE 6.9 mph - N/A   Clear
4:30 PM 50.0 °F - 42.8 °F 76% 30.24 in - East 9.2 mph - N/A   Clear
5:30 PM 50.0 °F - 44.6 °F 82% 30.21 in - East 9.2 mph - N/A   Clear
6:30 PM 48.2 °F - 41.0 °F 76% 30.24 in - ESE 4.6 mph - N/A   Clear
7:30 PM 46.4 °F 44.3 °F 41.0 °F 81% 30.24 in - SE 4.6 mph - N/A   Clear
8:30 PM 46.4 °F - 41.0 °F 81% 30.24 in - Calm Calm - N/A   Clear
9:30 PM 41.0 °F 38.0 °F 39.2 °F 93% 30.24 in - South 4.6 mph - N/A   Clear
10:30 PM 41.0 °F - 37.4 °F 87% 30.21 in - Calm Calm - N/A   Clear
11:30 PM 41.0 °F - 37.4 °F 87% 30.21 in - Calm Calm - N/A   Clear